1522522800.65,46641,8.75,71966.5,-2.01,-2.83,-2.83,0,*52
1522522801.84,46642,8.75,71974.0,-2.01,-2.83,-2.79,0,*54
1522522803.06,46643,8.75,71976.5,-2.01,-2.79,-2.75,0,*5C
1522522804.25,46644,8.81,71984.5,-2.01,-2.79,-2.79,0,*57
1522522805.44,46645,8.75,71982.3,-2.01,-2.83,-2.83,0,*56
1522522806.65,46646,8.75,71976.5,-1.99,-2.79,-2.79,0,*57
1522522807.9,46647,8.75,71978.5,-1.99,-2.79,-2.75,0,*5A
1522522809.15,46648,8.75,71984.3,-2.01,-2.75,-2.67,0,*58
1522522810.42,46649,8.75,71982.8,-1.99,-2.75,-2.67,0,*5B
1522522811.69,46650,8.75,71988.5,-1.99,-2.67,-2.67,0,*50
1522522812.94,46651,8.75,71968.0,-2.01,-2.75,-2.67,0,*50
1522522814.21,46652,8.75,71976.5,-1.99,-2.75,-2.67,0,*51
1522522815.49,46653,8.75,71984.8,-1.99,-2.67,-2.63,0,*57
1522522816.76,46654,8.75,71986.0,-1.99,-2.67,-2.63,0,*50
1522522818.03,46655,8.75,71994.0,-1.99,-2.75,-2.67,0,*56
1522522819.31,46656,8.75,71994.3,-1.99,-2.75,-2.75,0,*56
1522522820.5,46657,8.75,72022.5,-2.01,-2.79,-2.79,0,*55
1522522821.77,46658,8.75,71996.3,-1.99,-2.75,-2.75,0,*58
1522522823.01,46659,8.81,71988.8,-1.97,-2.71,-2.63,0,*54
1522522824.26,46660,8.81,72002.0,-1.97,-2.75,-2.75,0,*5D
1522522825.5,46661,8.75,72014.8,-1.97,-2.75,-2.75,0,*5C
1522522826.72,46662,8.75,72004.8,-1.99,-2.83,-2.83,0,*51
1522522827.91,46663,8.75,72012.8,-1.97,-2.87,-2.79,0,*5F
1522522829.12,46664,8.81,72014.5,-1.99,-2.83,-2.83,0,*57
1522522830.37,46665,8.75,72014.0,-1.99,-2.83,-2.75,0,*5F
1522522831.59,46666,8.75,72012.0,-1.97,-2.79,-2.75,0,*57
1522522832.77,46667,8.75,72016.5,-1.97,-2.87,-2.79,0,*5B
1522522833.96,46668,8.75,72020.0,-1.97,-2.87,-2.79,0,*54
1522522835.18,46669,8.75,72020.0,-1.99,-2.83,-2.83,0,*5A
1522522836.39,46670,8.75,72024.5,-1.99,-2.83,-2.91,0,*51
1522522837.6,46671,8.75,72014.3,-1.99,-2.91,-2.91,0,*53
1522522838.82,46672,8.81,72022.5,-1.99,-2.83,-2.83,0,*50
1522522840.01,46673,8.75,72032.3,-2.01,-2.83,-2.83,0,*53
1522522841.22,46674,8.81,72036.8,-1.99,-2.83,-2.83,0,*56
1522522842.43,46675,8.75,72024.5,-1.97,-2.75,-2.79,0,*55
1522522843.68,46676,8.75,72016.3,-1.97,-2.75,-2.71,0,*5E
1522522844.93,46677,8.75,72020.8,-1.99,-2.79,-2.75,0,*59
1522522846.15,46678,8.75,72020.3,-2.01,-2.79,-2.75,0,*54
1522522847.36,46679,8.75,72016.3,-1.99,-2.83,-2.79,0,*5E
1522522848.58,46680,8.75,72006.0,-1.99,-2.83,-2.79,0,*58
1522522849.79,46681,8.81,72022.5,-1.97,-2.79,-2.75,0,*5E
1522522851.01,46682,8.75,72006.8,-1.99,-2.83,-2.79,0,*5A
1522522852.19,46683,8.75,71988.3,-2.01,-2.91,-2.79,0,*5A
1522522853.38,46684,8.75,72008.3,-1.97,-2.87,-2.79,0,*56
1522522854.57,46685,8.75,72018.3,-1.97,-2.79,-2.79,0,*56
1522522855.76,46686,8.75,72002.8,-1.97,-2.87,-2.79,0,*54
1522522856.97,46687,8.75,72026.8,-1.97,-2.75,-2.79,0,*58
1522522858.16,46688,8.81,72020.0,-1.97,-2.87,-2.87,0,*5B
1522522859.37,46689,8.75,72012.8,-1.99,-2.91,-2.83,0,*57
1522522860.56,46690,8.75,71998.0,-1.97,-2.83,-2.83,0,*52
1522522861.78,46691,8.81,71992.0,-1.99,-2.83,-2.83,0,*5D
1522522862.99,46692,8.75,71984.5,-1.99,-2.91,-2.83,0,*5D
1522522864.18,46693,8.81,71978.3,-1.97,-2.99,-2.91,0,*59
1522522865.36,46694,8.75,71972.8,-1.97,-2.91,-2.91,0,*56
1522522866.55,46695,8.75,71976.0,-1.97,-2.91,-2.87,0,*50
1522522867.76,46696,8.75,71988.3,-1.99,-2.91,-2.91,0,*5A
1522522868.95,46697,8.75,71982.0,-1.97,-2.99,-2.79,0,*5B
1522522870.17,46698,8.75,71964.5,-1.99,-2.95,-2.91,0,*50
1522522871.4,46699,8.81,71964.0,-1.99,-2.95,-3.03,0,*5B
1522522872.63,46700,8.81,71956.0,-1.99,-2.95,-2.95,0,*54
1522522873.85,46701,8.75,71964.3,-1.99,-3.03,-2.95,0,*5B
1522522875.07,46702,8.75,71954.0,-1.99,-3.03,-2.95,0,*58
1522522876.3,46703,8.75,71956.0,-1.99,-2.95,-2.91,0,*53
1522522877.52,46704,8.75,71952.8,-1.99,-2.95,-2.83,0,*57
1522522878.75,46705,8.75,71956.0,-1.99,-2.95,-2.91,0,*55
1522522879.97,46706,8.75,71956.8,-1.99,-2.95,-2.83,0,*55
1522522881.19,46707,8.81,71962.5,-1.95,-2.87,-2.87,0,*5F
1522522882.4,46708,8.81,71964.3,-1.99,-2.91,-2.91,0,*5C
1522522883.61,46709,8.81,71964.0,-1.99,-2.91,-2.91,0,*5D
1522522884.84,46710,8.75,71960.5,-1.99,-2.95,-2.83,0,*52
1522522886.06,46711,8.75,71956.0,-1.99,-2.95,-2.91,0,*50
1522522887.25,46712,8.75,71956.0,-1.97,-2.79,-2.79,0,*59
1522522888.44,46713,8.75,71954.0,-2.01,-2.91,-2.91,0,*54
1522522889.66,46714,8.81,71960.5,-1.99,-2.95,-2.91,0,*55
1522522890.88,46715,8.75,71956.3,-1.99,-2.95,-2.91,0,*54
1522522892.07,46716,8.81,71962.8,-1.97,-2.87,-2.87,0,*5D
1522522893.29,46717,8.81,71982.5,-1.99,-2.83,-2.83,0,*52
1522522894.53,46718,8.75,71982.0,-1.99,-2.83,-2.75,0,*54
1522522895.75,46719,8.75,71978.0,-1.99,-2.79,-2.79,0,*5C
1522522896.94,46720,8.75,71992.8,-2.01,-2.79,-2.79,0,*54
1522522898.15,46721,8.75,71996.8,-1.99,-2.79,-2.79,0,*57
1522522899.38,46722,8.75,71996.3,-1.99,-2.95,-2.91,0,*50
1522522900.59,46723,8.75,71998.0,-1.99,-2.91,-2.83,0,*56
1522522901.78,46724,8.75,72008.5,-1.97,-2.79,-2.79,0,*5C
1522522903.0,46725,8.75,72006.8,-1.99,-2.83,-2.83,0,*53
1522522904.21,46726,8.81,72004.0,-1.99,-2.91,-2.83,0,*53
1522522905.43,46727,8.81,72010.0,-1.99,-2.91,-2.83,0,*52
1522522906.64,46728,8.81,72032.0,-1.99,-2.83,-2.83,0,*5E
1522522907.86,46729,8.75,72016.5,-1.99,-2.83,-2.83,0,*5F
1522522909.08,46730,8.81,72022.8,-1.97,-2.79,-2.71,0,*51
1522522910.3,46731,8.81,72008.5,-1.97,-2.79,-2.75,0,*54
1522522911.51,46732,8.75,71988.8,-1.99,-2.91,-2.83,0,*56
1522522912.73,46733,8.81,72000.5,-1.99,-3.07,-3.07,0,*54
1522522913.92,46734,8.75,72010.3,-2.01,-2.91,-2.83,0,*52
1522522915.15,46735,8.75,72004.5,-1.99,-2.95,-2.95,0,*52
1522522916.38,46736,8.81,72022.8,-1.99,-3.03,-2.95,0,*5F
1522522917.57,46737,8.81,72012.8,-1.97,-3.03,-2.99,0,*5C
1522522918.76,46738,8.75,72000.8,-1.97,-3.15,-3.03,0,*56
1522522919.95,46739,8.81,71990.5,-1.97,-3.15,-3.15,0,*50
1522522921.17,46740,8.75,72004.3,-1.99,-3.15,-3.15,0,*50
1522522922.4,46741,8.75,72010.5,-1.99,-3.27,-3.27,0,*51
1522522923.64,46742,8.75,72010.3,-1.99,-3.39,-3.43,0,*5F
1522522924.91,46743,8.81,71998.5,-1.99,-3.51,-3.51,0,*53
1522522926.15,46744,8.81,71992.3,-2.01,-3.51,-3.43,0,*55
1522522927.34,46745,8.75,71996.8,-2.01,-3.39,-3.39,0,*57
1522522928.54,46746,8.75,71980.8,-2.01,-3.27,-3.15,0,*55
1522522929.74,46747,8.75,71980.5,-2.01,-2.95,-2.95,0,*55
1522522930.94,46748,8.81,71972.8,-2.01,-2.95,-2.91,0,*5E
1522522932.13,46749,8.75,71970.3,-2.01,-3.15,-3.03,0,*5C
1522522933.33,46750,8.75,71966.5,-2.01,-3.03,-2.95,0,*5D
1522522934.52,46751,8.75,71968.3,-2.01,-3.07,-2.95,0,*58
1522522935.72,46752,8.75,71984.8,-2.01,-3.07,-2.95,0,*5B
1522522936.92,46753,8.75,71990.3,-2.05,-3.19,-3.11,0,*5C
1522522938.11,46754,8.75,72010.0,-2.01,-3.15,-3.03,0,*50
1522522939.31,46755,8.81,72012.0,-2.05,-3.07,-3.07,0,*52
1522522940.5,46756,8.75,72020.3,-2.01,-3.03,-2.95,0,*5B
1522522941.7,46757,8.75,72028.0,-2.01,-3.07,-3.03,0,*50
1522522942.89,46758,8.81,72030.5,-2.01,-3.03,-3.03,0,*5B
1522522944.09,46759,8.75,72022.5,-2.01,-2.95,-2.95,0,*5A
1522522945.29,46760,8.81,72018.8,-2.01,-3.07,-2.99,0,*56
1522522946.49,46761,8.75,72022.0,-2.05,-3.07,-2.99,0,*53
1522522947.68,46762,8.81,71982.5,-2.01,-3.07,-2.99,0,*54
1522522948.88,46763,8.75,71972.5,-2.01,-3.03,-2.95,0,*5D
1522522950.06,46764,8.75,71968.8,-2.01,-2.91,-2.91,0,*54
1522522951.27,46765,8.75,71966.8,-2.05,-2.95,-2.95,0,*51
1522522952.47,46766,8.81,71980.3,-2.05,-2.99,-2.95,0,*5E
1522522953.68,46767,8.75,71974.5,-2.01,-2.95,-2.95,0,*57
1522522954.87,46768,8.81,71984.8,-2.01,-3.03,-3.03,0,*58
1522522956.07,46769,8.75,71990.3,-2.01,-2.95,-2.95,0,*59
1522522957.26,46770,8.75,71984.0,-2.01,-2.91,-2.91,0,*51
1522522958.44,46771,8.75,71982.0,-2.01,-2.83,-2.83,0,*50
1522522959.66,46772,8.75,71974.0,-1.99,-2.91,-2.83,0,*52
1522522960.88,46773,8.75,71974.3,-1.99,-2.95,-2.91,0,*54
1522522962.07,46774,8.75,71974.3,-2.01,-2.91,-2.83,0,*56
1522522963.29,46775,8.75,71976.8,-1.99,-2.83,-2.83,0,*56
1522522964.48,46776,8.75,71982.0,-2.01,-2.83,-2.79,0,*52
1522522965.66,46777,8.75,71988.0,-2.01,-2.91,-2.83,0,*55
1522522966.86,46778,8.75,71982.0,-2.01,-2.95,-2.91,0,*5D
1522522968.04,46779,8.81,71988.0,-2.01,-2.91,-2.91,0,*58
1522522969.23,46780,8.75,71982.8,-2.01,-2.91,-2.83,0,*5D
1522522970.42,46781,8.81,71984.3,-2.01,-2.91,-2.91,0,*5F
1522522971.63,46782,8.75,71986.8,-1.99,-2.83,-2.83,0,*5E
1522522972.85,46783,8.81,71986.8,-1.99,-2.83,-2.83,0,*5F
1522522974.04,46784,8.75,71994.8,-2.05,-2.83,-2.83,0,*5E
1522522975.23,46785,8.81,71992.8,-2.01,-2.83,-2.91,0,*58
1522522976.41,46786,8.81,71998.8,-2.01,-2.83,-2.79,0,*5D
1522522977.6,46787,8.81,71998.8,-2.01,-2.83,-2.79,0,*5C
1522522978.81,46788,8.81,71994.5,-1.99,-2.83,-2.79,0,*51
1522522980.0,46789,8.81,71994.8,-2.01,-2.91,-2.79,0,*51
1522522981.22,46790,8.75,71988.8,-1.99,-2.91,-2.95,0,*59
1522522982.43,46791,8.75,71982.8,-1.99,-2.91,-2.91,0,*5C
1522522983.66,46792,8.75,71978.0,-1.99,-2.95,-2.91,0,*5B
1522522984.85,46793,8.75,71972.3,-2.01,-3.03,-2.95,0,*52
1522522986.08,46794,8.81,71970.0,-1.99,-3.03,-2.95,0,*57
1522522987.27,46795,8.75,71974.3,-2.01,-2.95,-2.91,0,*5E
1522522988.46,46796,8.81,71972.3,-2.01,-3.03,-3.03,0,*59
1522522989.66,46797,8.75,71972.5,-2.01,-3.03,-3.07,0,*5C
1522522990.85,46798,8.81,71966.5,-2.01,-3.03,-3.03,0,*57
1522522992.07,46799,8.81,71974.3,-1.99,-2.95,-2.91,0,*50
1522522993.26,46800,8.81,71976.8,-2.01,-2.91,-2.91,0,*59
1522522994.45,46801,8.81,71984.8,-2.01,-2.95,-2.91,0,*5C
1522522995.65,46802,8.75,71994.0,-2.01,-2.95,-2.83,0,*5C
1522522996.84,46803,8.75,71978.5,-2.01,-2.91,-2.83,0,*59
1522522998.06,46804,8.81,71970.3,-1.99,-2.95,-2.91,0,*5B
1522522999.25,46805,8.81,71978.0,-2.01,-2.83,-2.83,0,*5C
1522523000.44,46806,8.81,71972.8,-2.01,-2.83,-2.83,0,*5F
1522523001.63,46807,8.75,71972.0,-2.01,-2.91,-2.83,0,*5D
1522523002.81,46808,8.81,71972.3,-2.01,-2.83,-2.91,0,*52
1522523004.0,46809,8.81,71970.8,-2.01,-2.91,-2.91,0,*50
1522523005.19,46810,8.75,71968.8,-2.01,-2.83,-2.83,0,*58
1522523006.38,46811,8.75,71978.0,-2.01,-2.83,-2.83,0,*59
1522523007.59,46812,8.75,71982.5,-1.99,-2.83,-2.83,0,*58
1522523008.78,46813,8.81,71978.8,-2.01,-2.83,-2.83,0,*5B
1522523010.01,46814,8.81,71974.0,-1.99,-2.95,-2.83,0,*59
1522523011.2,46815,8.81,71978.8,-2.01,-2.83,-2.83,0,*5D
1522523012.38,46816,8.81,71970.5,-2.01,-2.79,-2.79,0,*5E
1522523013.57,46817,8.81,71980.0,-2.01,-2.83,-2.79,0,*5A
1522523014.79,46818,8.75,71984.0,-1.99,-2.83,-2.79,0,*57
1522523015.97,46819,8.75,71980.8,-2.01,-2.83,-2.79,0,*54
1522523017.16,46820,8.75,71980.3,-2.01,-2.91,-2.79,0,*5D
1522523018.37,46821,8.75,71976.5,-1.99,-2.83,-2.83,0,*58
1522523019.56,46822,8.75,71984.3,-2.01,-2.83,-2.83,0,*59
1522523020.75,46823,8.75,71980.8,-2.01,-2.83,-2.79,0,*5D
1522523021.97,46824,8.75,71976.3,-1.99,-2.79,-2.79,0,*5D
1522523023.18,46825,8.81,71976.5,-1.99,-2.83,-2.79,0,*59
1522523024.4,46826,8.75,71978.8,-1.99,-2.79,-2.79,0,*5F
1522523025.62,46827,8.81,71984.0,-1.99,-2.79,-2.79,0,*5E
1522523026.83,46828,8.81,71982.3,-1.99,-2.79,-2.83,0,*54
1522523028.05,46829,8.75,71976.8,-1.99,-2.79,-2.79,0,*50
1522523029.24,46830,8.81,71980.5,-2.01,-2.91,-2.79,0,*5C
1522523030.45,46831,8.75,71974.3,-1.99,-2.83,-2.83,0,*59
1522523031.67,46832,8.75,71972.5,-1.99,-2.83,-2.83,0,*5A
1522523032.89,46833,8.75,71974.8,-1.99,-2.83,-2.83,0,*5B
1522523034.1,46834,8.81,71970.3,-1.99,-2.83,-2.83,0,*5C
1522523035.29,46835,8.75,71960.8,-2.01,-2.91,-2.83,0,*5C
1522523036.51,46836,8.81,71962.0,-1.99,-2.95,-2.91,0,*5A
1522523037.73,46837,8.81,71968.8,-1.99,-2.83,-2.83,0,*5F
1522523038.92,46838,8.81,71960.5,-1.97,-2.87,-2.87,0,*5E
1522523040.11,46839,8.81,71968.5,-2.01,-3.07,-3.07,0,*53
1522523041.31,46840,8.81,71974.0,-2.01,-2.95,-2.95,0,*5D
1522523042.54,46841,8.81,71968.8,-1.99,-2.95,-2.95,0,*5E
1522523043.74,46842,8.81,71976.5,-2.01,-3.03,-3.03,0,*5F
1522523044.94,46843,8.81,71982.5,-2.01,-2.95,-2.95,0,*5E
1522523046.13,46844,8.81,71978.0,-2.01,-2.91,-2.91,0,*59
1522523047.31,46845,8.81,71984.0,-2.01,-2.91,-2.83,0,*5B
1522523048.53,46846,8.75,71972.8,-1.99,-2.91,-2.91,0,*59
1522523049.74,46847,8.81,71964.3,-1.99,-2.91,-2.91,0,*58
1522523050.96,46848,8.75,71968.8,-1.99,-2.91,-3.03,0,*5D
1522523052.17,46849,8.75,71978.0,-1.99,-2.91,-2.91,0,*56
1522523053.36,46850,8.75,71972.8,-2.01,-2.83,-2.83,0,*5C
1522523054.57,46851,8.81,71972.3,-1.99,-2.83,-2.83,0,*5F
1522523055.77,46852,8.81,71970.0,-2.01,-2.95,-2.83,0,*59
1522523056.99,46853,8.81,71958.5,-1.99,-2.91,-2.83,0,*5E
1522523058.17,46854,8.81,71964.3,-2.01,-2.83,-2.83,0,*58
1522523059.39,46855,8.81,71964.0,-1.99,-2.79,-2.79,0,*5B
1522523060.61,46856,8.81,71980.0,-1.99,-2.79,-2.79,0,*58
1522523061.83,46857,8.75,71978.0,-1.99,-2.79,-2.79,0,*59
1522523063.04,46858,8.81,71980.5,-1.99,-2.83,-2.83,0,*56
1522523064.26,46859,8.75,71968.8,-1.99,-2.83,-2.83,0,*57
1522523065.45,46860,8.81,71964.8,-1.97,-2.79,-2.87,0,*52
1522523066.63,46861,8.81,71974.0,-2.01,-2.91,-2.91,0,*5E
1522523067.85,46862,8.81,71972.8,-1.99,-2.91,-2.91,0,*5F
1522523069.06,46863,8.81,71980.8,-1.99,-2.91,-2.83,0,*5D
1522523070.25,46864,8.81,71976.5,-2.01,-3.03,-3.03,0,*5B
1522523071.47,46865,8.75,71972.3,-1.99,-3.03,-3.03,0,*58
1522523072.67,46866,8.81,71972.8,-2.01,-2.91,-2.95,0,*5D
1522523073.89,46867,8.81,71988.0,-1.99,-2.95,-2.91,0,*5E
1522523075.12,46868,8.81,71986.3,-1.99,-2.95,-2.83,0,*52
1522523076.33,46869,8.81,71982.0,-1.99,-2.83,-2.83,0,*54
1522523077.53,46870,8.81,71982.0,-2.01,-2.95,-2.91,0,*5A
1522523078.74,46871,8.81,71970.0,-1.99,-2.91,-2.83,0,*5E
1522523079.93,46872,8.81,71976.3,-2.01,-2.83,-2.83,0,*5C
1522523081.15,46873,8.81,71972.3,-1.99,-2.91,-2.83,0,*5C
1522523082.34,46874,8.81,71968.5,-2.01,-2.83,-2.83,0,*5A
1522523083.55,46875,8.81,71956.8,-1.99,-2.83,-2.83,0,*59
1522523084.77,46876,8.81,71956.5,-1.99,-2.83,-2.83,0,*5A
1522523085.98,46877,8.81,71960.8,-1.99,-2.91,-2.83,0,*58
1522523087.2,46878,8.81,71968.8,-1.99,-2.83,-2.83,0,*54
1522523088.42,46879,8.75,71972.5,-1.99,-2.83,-2.83,0,*55
1522523089.6,46880,8.81,71976.5,-2.01,-2.91,-2.83,0,*52
1522523090.79,46881,8.81,71976.0,-2.01,-2.83,-2.83,0,*50
1522523092.01,46882,8.81,71974.5,-1.99,-2.79,-2.79,0,*51
1522523093.2,46883,8.81,71966.3,-2.01,-2.91,-2.79,0,*54
1522523094.42,46884,8.81,71974.0,-1.99,-2.95,-2.91,0,*53
1522523095.61,46885,8.81,71970.0,-2.01,-2.95,-2.91,0,*50
1522523096.83,46886,8.81,71972.0,-1.99,-3.03,-2.83,0,*5C
1522523098.06,46887,8.81,71968.3,-1.99,-2.95,-2.91,0,*50
1522523099.27,46888,8.81,71964.0,-1.99,-2.91,-2.83,0,*58
1522523100.49,46889,8.75,71966.3,-1.99,-2.91,-2.83,0,*59
1522523101.67,46890,8.81,71958.5,-2.01,-2.91,-2.91,0,*50
1522523102.86,46891,8.81,71972.8,-1.97,-2.79,-2.79,0,*5D
1522523104.05,46892,8.81,71978.0,-2.01,-2.83,-2.83,0,*52
1522523105.26,46893,8.81,71974.8,-1.99,-2.91,-2.91,0,*51
1522523106.48,46894,8.81,71966.8,-1.99,-2.91,-2.83,0,*55
1522523107.69,46895,8.75,71966.3,-1.99,-2.83,-2.79,0,*52
1522523108.88,46896,8.81,71976.0,-2.01,-2.83,-2.79,0,*53
1522523110.13,46897,8.75,71972.8,-1.99,-2.79,-2.75,0,*59
1522523111.34,46898,8.81,71960.0,-1.99,-2.79,-2.79,0,*5A
1522523112.59,46899,8.81,71966.8,-1.99,-2.79,-2.75,0,*57
1522523113.81,46900,8.81,71974.8,-1.99,-2.83,-2.83,0,*5A
1522523115.03,46901,8.75,71976.0,-1.99,-2.95,-2.91,0,*5F
1522523116.22,46902,8.75,71986.5,-1.97,-2.91,-2.87,0,*51
1522523117.41,46903,8.81,71984.0,-2.01,-3.07,-3.07,0,*5B
1522523118.64,46904,8.81,71964.0,-1.99,-2.95,-2.95,0,*5E
1522523119.83,46905,8.81,71960.5,-2.01,-2.83,-2.83,0,*5D
1522523121.04,46906,8.81,71966.0,-1.99,-2.83,-2.83,0,*5C
1522523122.24,46907,8.75,71952.8,-2.01,-3.07,-2.95,0,*55
1522523123.46,46908,8.81,71956.3,-1.99,-3.03,-3.03,0,*52
1522523124.66,46909,8.81,71954.0,-2.01,-3.03,-2.95,0,*5F
1522523125.88,46910,8.81,71952.5,-1.99,-3.03,-2.95,0,*55
1522523127.11,46911,8.75,71962.8,-1.99,-2.95,-2.95,0,*5A
1522523128.31,46912,8.75,71978.5,-2.01,-2.95,-2.91,0,*5F
1522523129.49,46913,8.81,71978.5,-2.01,-2.91,-2.83,0,*59
1522523130.71,46914,8.81,71972.3,-1.95,-2.87,-2.79,0,*52
1522523131.93,46915,8.81,71972.5,-1.99,-2.91,-2.83,0,*5D
1522523133.12,46916,8.81,71968.5,-2.01,-2.83,-2.83,0,*5F
1522523134.3,46917,8.81,71984.8,-2.01,-2.83,-2.83,0,*5E
1522523135.52,46918,8.81,71980.8,-1.99,-2.83,-2.79,0,*56
1522523136.74,46919,8.81,71980.8,-1.99,-2.95,-2.83,0,*55
1522523137.97,46920,8.81,71978.3,-1.99,-2.95,-2.91,0,*5C
1522523139.19,46921,8.81,71982.3,-1.99,-2.95,-2.91,0,*5D
1522523140.41,46922,8.81,71980.8,-1.99,-2.95,-2.91,0,*5E
1522523141.63,46923,8.81,71980.8,-1.99,-3.07,-3.07,0,*5B
1522523142.85,46924,8.81,71986.3,-1.99,-3.03,-3.03,0,*5C
1522523144.04,46925,8.81,71986.8,-2.01,-3.15,-3.15,0,*5F
1522523145.24,46926,8.81,71988.5,-2.01,-3.07,-2.95,0,*56
1522523146.46,46927,8.81,71986.8,-1.99,-3.03,-2.95,0,*51
1522523147.68,46928,8.81,71984.3,-1.99,-2.95,-2.91,0,*54
1522523148.88,46929,8.81,71978.0,-2.01,-2.95,-2.91,0,*57
1522523150.1,46930,8.81,71974.0,-1.99,-3.15,-3.03,0,*5E
1522523151.3,46931,8.81,71968.0,-2.01,-3.07,-3.03,0,*5E
1522523152.52,46932,8.81,71966.5,-1.99,-3.15,-3.03,0,*5C
1522523153.71,46933,8.81,71966.8,-2.01,-3.15,-3.03,0,*5F
1522523154.91,46934,8.81,71976.5,-2.01,-3.15,-3.03,0,*58
1522523156.13,46935,8.75,71960.3,-1.99,-3.27,-3.19,0,*51
1522523157.35,46936,8.81,71974.3,-1.99,-3.19,-3.15,0,*53
1522523158.57,46937,8.81,71976.5,-1.99,-3.15,-3.07,0,*5D
1522523159.77,46938,8.81,71976.5,-2.01,-3.31,-3.27,0,*54
1522523160.96,46939,8.81,71970.0,-2.01,-3.19,-3.15,0,*5E
1522523162.15,46940,8.81,71966.8,-2.01,-3.15,-3.15,0,*5C
1522523163.34,46941,8.81,71970.8,-2.01,-3.27,-3.19,0,*50
1522523164.54,46942,8.81,71974.3,-2.01,-3.27,-3.27,0,*5E
1522523165.73,46943,8.81,71974.8,-2.01,-3.19,-3.15,0,*53
1522523166.95,46944,8.81,71976.5,-1.99,-3.15,-3.15,0,*5A
1522523168.18,46945,8.81,71956.8,-1.99,-3.39,-3.27,0,*54
1522523169.36,46946,8.81,71968.8,-2.01,-3.19,-3.19,0,*5A
1522523170.56,46947,8.81,71976.8,-2.01,-3.31,-3.19,0,*51
1522523171.77,46948,8.81,71978.0,-2.01,-3.43,-3.31,0,*51
1522523173.02,46949,8.81,71976.0,-2.05,-3.47,-3.43,0,*55
1522523174.22,46950,8.81,71980.8,-2.05,-3.35,-3.35,0,*59
1522523175.41,46951,8.81,71962.8,-2.05,-3.31,-3.23,0,*5B
1522523176.62,46952,8.81,71954.3,-2.07,-3.23,-3.23,0,*59
1522523177.89,46953,8.81,71944.0,-2.07,-3.55,-3.47,0,*5B
1522523179.14,46954,8.81,71952.8,-2.07,-3.47,-3.35,0,*5A
1522523180.33,46955,8.81,71950.5,-2.05,-3.31,-3.23,0,*5F
1522523181.52,46956,8.81,71958.3,-2.05,-3.23,-3.19,0,*56
1522523182.71,46957,8.81,71952.5,-2.05,-3.23,-3.11,0,*5F
1522523183.91,46958,8.81,71966.0,-2.05,-3.31,-3.19,0,*5B
1522523185.1,46959,8.81,71970.3,-2.05,-3.35,-3.23,0,*57
1522523186.32,46960,8.81,71982.8,-2.07,-3.31,-3.23,0,*5B
1522523187.55,46961,8.81,71982.5,-2.07,-3.31,-3.11,0,*5B
1522523188.74,46962,8.81,71986.5,-2.05,-3.31,-3.31,0,*58
1522523189.96,46963,8.81,71978.8,-2.07,-3.23,-3.19,0,*52
1522523191.18,46964,8.81,71988.0,-2.07,-3.23,-3.19,0,*55
1522523192.4,46965,8.81,71990.3,-2.07,-3.11,-3.11,0,*5D
1522523193.6,46966,8.81,71996.8,-2.05,-3.19,-3.11,0,*54
1522523194.82,46967,8.81,71992.8,-2.07,-3.11,-3.07,0,*58
1522523196.01,46968,8.81,71976.8,-2.05,-3.23,-3.07,0,*54
1522523197.21,46969,8.81,71960.3,-2.05,-3.35,-3.31,0,*57
1522523198.44,46970,8.81,71956.8,-2.07,-3.35,-3.35,0,*59
1522523199.66,46971,8.81,71956.0,-2.07,-3.31,-3.19,0,*52
1522523200.89,46972,8.81,71946.3,-2.07,-3.31,-3.31,0,*5B
1522523202.11,46973,8.81,71954.0,-2.07,-3.35,-3.31,0,*5E
1522523203.38,46974,8.81,71968.3,-2.07,-3.43,-3.43,0,*5D
1522523204.65,46975,8.81,71974.3,-2.07,-3.43,-3.43,0,*5C
1522523205.87,46976,8.81,71978.8,-2.07,-3.35,-3.35,0,*5F
1522523207.12,46977,8.81,71994.3,-2.07,-3.43,-3.31,0,*5B
1522523208.34,46978,8.81,71982.8,-2.07,-3.23,-3.11,0,*50
1522523209.53,46979,8.75,71980.5,-2.09,-3.15,-3.11,0,*5A
1522523210.75,46980,8.81,71982.3,-2.07,-3.23,-3.19,0,*5F
1522523211.94,46981,8.81,71968.8,-2.09,-3.23,-3.11,0,*58
1522523213.13,46982,8.81,71968.8,-2.09,-3.23,-3.11,0,*5B
1522523214.35,46983,8.81,71982.8,-2.07,-3.31,-3.19,0,*5F
1522523215.6,46984,8.81,71990.0,-2.07,-3.43,-3.35,0,*53
1522523216.82,46985,8.81,71992.8,-2.07,-3.11,-3.19,0,*5B
1522523218.0,46986,8.81,71992.8,-2.09,-3.23,-3.23,0,*5E
1522523219.19,46987,8.81,71988.3,-2.09,-3.23,-3.23,0,*5F
1522523220.38,46988,8.81,71980.5,-2.09,-3.27,-3.23,0,*54
1522523221.59,46989,8.81,71974.3,-2.07,-3.19,-3.19,0,*5F
1522523222.81,46990,8.81,71964.5,-2.07,-3.19,-3.19,0,*57
1522523224.0,46991,8.81,71956.5,-2.09,-3.23,-3.23,0,*58
1522523225.18,46992,8.81,71962.0,-2.09,-3.23,-3.23,0,*5B
1522523226.4,46993,8.81,71966.5,-2.07,-3.31,-3.19,0,*5E
1522523227.6,46994,8.81,71960.0,-2.09,-3.27,-3.27,0,*5D
1522523228.79,46995,8.81,71974.5,-2.09,-3.23,-3.15,0,*59
1522523229.97,46996,8.81,71970.5,-2.09,-3.23,-3.23,0,*5F
1522523231.19,46997,8.81,71964.8,-2.11,-3.15,-3.15,0,*57
1522523232.39,46998,8.81,71968.5,-2.09,-3.15,-3.03,0,*56
1522523233.61,46999,8.81,71978.0,-2.11,-3.03,-2.99,0,*5B
1522523234.83,47000,8.81,71982.8,-2.11,-3.03,-2.99,0,*53
1522523236.03,47001,8.81,71982.0,-2.09,-3.11,-2.91,0,*50
1522523237.22,47002,8.81,71980.0,-2.09,-3.11,-3.03,0,*59
1522523238.42,47003,8.81,71980.5,-2.09,-2.99,-2.99,0,*5B
1522523239.61,47004,8.81,71980.8,-2.09,-3.23,-3.03,0,*5E
1522523240.8,47005,8.81,71980.5,-2.09,-3.15,-3.11,0,*59
1522523241.99,47006,8.81,71984.0,-2.09,-3.27,-3.23,0,*5A
1522523243.19,47007,8.81,71998.0,-2.09,-3.27,-3.15,0,*5E
1522523244.37,47008,8.81,71992.3,-2.09,-3.23,-3.11,0,*51
1522523245.57,47009,8.81,71988.3,-2.09,-3.03,-2.99,0,*53
1522523246.76,47010,8.81,71988.0,-2.09,-2.99,-2.91,0,*51
1522523247.96,47011,8.81,71986.3,-2.09,-3.11,-2.99,0,*59
1522523249.16,47012,8.81,71980.8,-2.09,-3.11,-2.99,0,*5A
1522523250.35,47013,8.81,71978.5,-2.09,-3.03,-2.99,0,*58
1522523251.58,47014,8.81,71982.0,-2.07,-3.07,-2.99,0,*55
1522523252.81,47015,8.81,71972.5,-2.07,-2.95,-2.87,0,*51
1522523254.04,47016,8.81,71976.8,-2.07,-2.99,-2.95,0,*5D
1522523255.26,47017,8.81,71960.5,-2.07,-3.19,-3.07,0,*5F
1522523256.45,47018,8.81,71954.0,-2.09,-3.23,-3.15,0,*54
1522523257.64,47019,8.81,71952.5,-2.09,-3.27,-3.15,0,*51
1522523258.84,47020,8.81,71948.0,-2.09,-3.15,-3.11,0,*5E
1522523260.06,47021,8.81,71938.3,-2.07,-3.19,-3.07,0,*5A
1522523261.28,47022,8.81,71934.3,-2.07,-3.19,-3.11,0,*5E
1522523262.47,47023,8.81,71926.5,-2.09,-3.23,-3.15,0,*5C
1522523263.66,47024,8.81,71940.8,-2.09,-3.15,-3.03,0,*59
1522523264.85,47025,8.81,71936.8,-2.09,-3.23,-3.11,0,*5E
1522523266.04,47026,8.81,71932.5,-2.09,-3.23,-3.11,0,*5D
1522523267.24,47027,8.81,71930.3,-2.09,-3.15,-3.11,0,*59
1522523268.45,47028,8.75,71932.5,-2.11,-3.23,-3.23,0,*5B
1522523269.64,47029,8.81,71940.8,-2.09,-3.23,-3.11,0,*52
1522523270.83,47030,8.81,71956.3,-2.09,-3.11,-3.03,0,*58
1522523272.03,47031,8.81,71946.3,-2.09,-3.11,-3.03,0,*59
1522523273.25,47032,8.81,71950.3,-2.11,-3.11,-3.11,0,*50
1522523274.44,47033,8.81,71946.3,-2.09,-3.03,-3.03,0,*58
1522523275.64,47034,8.81,71956.3,-2.09,-3.03,-2.99,0,*5D
1522523276.83,47035,8.81,71956.8,-2.09,-3.11,-3.03,0,*5D
1522523278.03,47036,8.81,71968.8,-2.09,-3.11,-2.99,0,*5C
1522523279.25,47037,8.81,71958.3,-2.07,-2.99,-2.99,0,*52
1522523280.44,47038,8.75,71962.0,-2.09,-3.03,-2.91,0,*59
1522523281.64,47039,8.81,71960.5,-2.09,-3.11,-2.99,0,*53
1522523282.84,47040,8.81,71964.3,-2.09,-3.11,-3.03,0,*5F
1522523284.03,47041,8.81,71956.3,-2.09,-3.11,-3.11,0,*5D
1522523285.22,47042,8.81,71960.0,-2.09,-3.27,-3.23,0,*5A
1522523286.44,47043,8.81,71968.3,-2.07,-3.23,-3.19,0,*58
1522523287.63,47044,8.81,71976.3,-2.09,-3.27,-3.23,0,*5C
1522523288.83,47045,8.81,71976.5,-2.09,-3.27,-3.27,0,*59
1522523290.02,47046,8.81,71978.0,-2.09,-3.11,-3.03,0,*59
1522523291.22,47047,8.81,71976.3,-2.09,-3.11,-2.99,0,*5A
1522523292.41,47048,8.81,71970.5,-2.09,-3.11,-3.11,0,*54
1522523293.61,47049,8.81,71970.5,-2.09,-3.15,-3.11,0,*51
1522523294.8,47050,8.81,71972.3,-2.09,-3.11,-3.11,0,*5D
1522523296.0,47051,8.81,71976.5,-2.09,-3.03,-2.99,0,*5E
1522523297.19,47052,8.81,71974.8,-2.09,-3.03,-2.91,0,*55
1522523298.4,47053,8.81,71970.3,-2.11,-2.99,-2.91,0,*5F
1522523299.6,47054,8.81,71960.5,-2.09,-3.03,-2.99,0,*5B
1522523300.78,47055,8.81,71958.5,-2.09,-2.91,-2.91,0,*58
1522523301.98,47056,8.81,71954.0,-2.09,-2.99,-2.99,0,*5B
1522523303.18,47057,8.81,71954.5,-2.09,-3.11,-3.03,0,*59
1522523304.4,47058,8.81,71958.8,-2.07,-3.07,-2.99,0,*5D
1522523305.6,47059,8.81,71972.0,-2.09,-3.11,-3.11,0,*54
1522523306.79,47060,8.75,71966.5,-2.09,-3.15,-3.15,0,*5E
1522523308.01,47061,8.81,71970.8,-2.11,-3.15,-3.03,0,*51